Flag for U.S.A. Weather past 2 weeks in Fairbanks, Alaska, U.S.A.

Now
45 °F

Clear.


Feels Like: 45 °F
Forecast: 49 / 70 °F
Wind: No wind

Location: Wainwright U. S. Army Airfield

Current Time: May 29, 2015 at 3:24:04 AM

Latest Report: May 29, 2015 at 2:56 AM


Visibility: 10 mi

Pressure: 30.30 "Hg

Humidity: 86%

Dew point: 41 °F

Location of FairbanksLocation

Historic Weather in Fairbanks — Graph

°F

Fairbanks temperature yesterday

Maximum temperature yesterday: 70 °F (at 6:55 PM)
Minimum temperature yesterday: 50 °F (at 3:56 AM)
Average temperature yesterday: 61 °F

Past Weeks' High & Low Weather Summary

 TemperatureHumidityPressure
High86 °F (May 23, 4:56 PM)86% (May 28, 3:56 AM)30.29 "Hg (May 28, 3:56 AM)
Low38 °F (May 17, 4:56 AM)8% (May 23, 4:56 PM)29.61 "Hg (May 14, 6:55 PM)
Average63 °F42%29.96 "Hg
* Reported May 14 1:56 AM — May 29 1:56 AM, Fairbanks, Weather by CustomWeather, © 2015

Note: Actual official high and low records may vary slightly from our data, if they occured in-between our weather recording intervals... More about our weather records

Advertising

Fairbanks weather history for previous 24 hours

 ConditionsComfort  
Time TempWeatherWind HumidityBarometerVisibility
1:56 AM
Fri, May 29
49 °FClear.No wind84%30.29 "Hg10 mi
12:56 AM51 °FPassing clouds.3 mph80%30.28 "Hg10 mi
11:56 PM
Thu, May 28
54 °FPassing clouds.No wind74%30.27 "Hg10 mi
10:56 PM62 °FSunny.7 mph54%30.26 "Hg10 mi
9:56 PM64 °FSunny.9 mph49%30.25 "Hg10 mi
8:55 PM64 °FScattered clouds.14 mph46%30.25 "Hg25 mi
7:55 PM68 °FPassing clouds.17 mph40%30.23 "Hg25 mi
6:55 PM70 °FPartly sunny.10 mph43%30.22 "Hg25 mi
5:55 PM68 °FPartly sunny.6 mph49%30.22 "Hg25 mi
4:55 PM64 °FPartly sunny.6 mph60%30.23 "Hg25 mi
3:55 PM63 °FPartly sunny.3 mph68%30.23 "Hg13 mi
2:55 PM59 °FSprinkles. Mostly cloudy.5 mph72%30.23 "Hg13 mi
1:55 PM59 °FSprinkles. Mostly cloudy.3 mph72%30.23 "Hg13 mi
1:02 PM63 °FSprinkles. Mostly cloudy.12 mph59%30.21 "Hg13 mi
12:55 PM64 °FScattered showers. Partly sunny.14 mph49%30.21 "Hg13 mi
11:55 AM63 °FScattered showers. Partly sunny.8 mph56%30.21 "Hg13 mi
10:55 AM64 °FScattered showers. Partly sunny.14 mph52%30.19 "Hg25 mi
9:55 AM64 °FBroken clouds.7 mph56%30.18 "Hg25 mi
8:55 AM61 °FBroken clouds.No wind68%30.18 "Hg25 mi
7:55 AM57 °FBroken clouds.No wind77%30.17 "Hg25 mi
6:55 AM57 °FPartly sunny.3 mph72%30.16 "Hg25 mi
5:56 AM57 °FOvercast.No wind74%30.15 "Hg10 mi
4:56 AM54 °FScattered clouds.No wind77%30.15 "Hg10 mi
3:56 AM50 °FClear.No wind86%30.15 "Hg10 mi
Weather by CustomWeather, © 2015

See weather overviewHow to use our weather pages